RYR66DT EIDW-LFRS

Flight info

Callsign RYR66DT
Flight time 1h 18m
Altitude 35000
Route PESIT2J PESIT DCT BAKUR DCT GUBJE DCT GISOK DCT TACQI DCT MANIG DCT BADUR DCT KORER UN482 GODAN
Aircraft B38M/M-SDE1FGHILORVWXY/HB1

Departure

Time 2026-04-30 18:27
Airport Dublin Airport (EIDW)

Arrival

Time 2026-04-30 19:45
Airport Nantes Atlantique Airport (LFRS)
Time Latitude Longitude Altitude Speed Heading
2026-04-30 18:00 53.43008 -6.24944 213 ft 0 kts
2026-04-30 18:18 53.42985 -6.24945 215 ft 4 kts 354°
2026-04-30 18:18 53.42960 -6.24934 213 ft 4 kts 326°
2026-04-30 18:18 53.42947 -6.24905 213 ft 2 kts 277°
2026-04-30 18:18 53.42947 -6.24901 213 ft 1 kts 276°
2026-04-30 18:21 53.42947 -6.24902 213 ft 0 kts 276°
2026-04-30 18:21 53.42947 -6.24907 215 ft 1 kts 276°
2026-04-30 18:21 53.42950 -6.24952 213 ft 8 kts 276°
2026-04-30 18:21 53.42958 -6.25105 213 ft 18 kts 275°
2026-04-30 18:22 53.42922 -6.25358 217 ft 28 kts 229°
2026-04-30 18:22 53.42626 -6.25719 215 ft 25 kts 158°
2026-04-30 18:22 53.42488 -6.25775 217 ft 22 kts 225°
2026-04-30 18:23 53.42379 -6.25964 213 ft 23 kts 226°
2026-04-30 18:23 53.42277 -6.26181 219 ft 24 kts 251°
2026-04-30 18:23 53.42277 -6.26471 220 ft 26 kts 275°
2026-04-30 18:23 53.42293 -6.26775 217 ft 27 kts 276°
2026-04-30 18:24 53.42328 -6.27427 213 ft 29 kts 275°
2026-04-30 18:24 53.42348 -6.27772 216 ft 30 kts 275°
2026-04-30 18:24 53.42367 -6.28128 213 ft 31 kts 275°
2026-04-30 18:25 53.42387 -6.28491 213 ft 32 kts 275°
2026-04-30 18:25 53.42301 -6.29071 212 ft 23 kts 175°
2026-04-30 18:25 53.42240 -6.28967 218 ft 10 kts 95°
2026-04-30 18:26 53.42199 -6.28219 215 ft 93 kts 95°
2026-04-30 18:26 53.42116 -6.26721 215 ft 162 kts 95°
2026-04-30 18:26 53.41995 -6.24693 826 ft 175 kts 96°
2026-04-30 18:27 53.41771 -6.20577 2544 ft 194 kts 101°
2026-04-30 18:27 53.41638 -6.18185 3110 ft 218 kts 100°
2026-04-30 18:28 53.41342 -6.12760 4576 ft 250 kts 100°
2026-04-30 18:28 53.41181 -6.09847 5600 ft 253 kts 100°
2026-04-30 18:28 53.40746 -6.03861 7393 ft 260 kts 112°
2026-04-30 18:29 53.39862 -6.01276 8257 ft 258 kts 136°
2026-04-30 18:29 53.34900 -5.99543 10359 ft 265 kts 188°
2026-04-30 18:30 53.31062 -6.00900 11145 ft 301 kts 190°
2026-04-30 18:30 53.26926 -6.02712 12554 ft 310 kts 194°
2026-04-30 18:31 53.24843 -6.03757 13273 ft 314 kts 193°
2026-04-30 18:31 53.20615 -6.05869 14667 ft 321 kts 193°
2026-04-30 18:32 53.16203 -6.06966 15900 ft 324 kts 183°
2026-04-30 18:32 53.13981 -6.07339 16491 ft 326 kts 183°
2026-04-30 18:32 53.09487 -6.06828 17648 ft 329 kts 165°
2026-04-30 18:33 53.07259 -6.05868 18190 ft 332 kts 165°
2026-04-30 18:33 53.02752 -6.03868 19175 ft 337 kts 164°
2026-04-30 18:33 53.00482 -6.02842 19644 ft 340 kts 164°
2026-04-30 18:34 52.98188 -6.01802 20102 ft 342 kts 164°
2026-04-30 18:34 52.93595 -5.99717 20989 ft 347 kts 164°
2026-04-30 18:34 52.91257 -5.98657 21434 ft 350 kts 164°
2026-04-30 18:35 52.88903 -5.97591 21878 ft 352 kts 164°
2026-04-30 18:35 52.86533 -5.96519 22316 ft 354 kts 165°
2026-04-30 18:35 52.84143 -5.95439 22754 ft 357 kts 165°
2026-04-30 18:36 52.79380 -5.93290 23092 ft 360 kts 165°
2026-04-30 18:36 52.76902 -5.92174 23088 ft 359 kts 165°
2026-04-30 18:36 52.72078 -5.90005 23084 ft 359 kts 165°
2026-04-30 18:37 52.69669 -5.88924 23085 ft 359 kts 165°
2026-04-30 18:37 52.67291 -5.87858 23082 ft 359 kts 165°
2026-04-30 18:37 52.64878 -5.86778 23083 ft 359 kts 165°
2026-04-30 18:37 52.62472 -5.85701 23081 ft 359 kts 165°
2026-04-30 18:38 52.60060 -5.84623 23076 ft 359 kts 165°
2026-04-30 18:38 52.57650 -5.83548 23081 ft 359 kts 165°
2026-04-30 18:38 52.55241 -5.82474 23081 ft 359 kts 165°
2026-04-30 18:38 52.52833 -5.81402 23075 ft 359 kts 165°
2026-04-30 18:39 52.50421 -5.80329 23076 ft 359 kts 165°
2026-04-30 18:39 52.48011 -5.79259 23080 ft 359 kts 165°
2026-04-30 18:39 52.45636 -5.78204 23076 ft 359 kts 165°
2026-04-30 18:39 52.43223 -5.77135 23076 ft 359 kts 165°
2026-04-30 18:40 52.40816 -5.76068 23075 ft 359 kts 165°
2026-04-30 18:40 52.38409 -5.74909 23421 ft 360 kts 163°
2026-04-30 18:40 52.36005 -5.73739 23819 ft 362 kts 163°
2026-04-30 18:40 52.33577 -5.72565 24161 ft 365 kts 163°
2026-04-30 18:41 52.31136 -5.71386 24532 ft 367 kts 164°
2026-04-30 18:41 52.28678 -5.70202 24890 ft 369 kts 164°
2026-04-30 18:41 52.26245 -5.69030 25238 ft 371 kts 164°
2026-04-30 18:41 52.23780 -5.67735 25589 ft 373 kts 158°
2026-04-30 18:42 52.21386 -5.66055 25937 ft 375 kts 158°
2026-04-30 18:42 52.16538 -5.62771 26612 ft 380 kts 159°
2026-04-30 18:42 52.14085 -5.61137 26944 ft 382 kts 159°
2026-04-30 18:45 51.89341 -5.42778 29903 ft 402 kts 155°
2026-04-30 18:45 51.86818 -5.40803 30159 ft 403 kts 155°
2026-04-30 18:45 51.84288 -5.38825 30372 ft 405 kts 155°
2026-04-30 18:46 51.81741 -5.36835 30574 ft 408 kts 155°
2026-04-30 18:46 51.79218 -5.34867 30769 ft 409 kts 155°
2026-04-30 18:46 51.76643 -5.32861 30968 ft 412 kts 155°
2026-04-30 18:46 51.74056 -5.30849 31164 ft 413 kts 155°
2026-04-30 18:47 51.71460 -5.28831 31364 ft 415 kts 155°
2026-04-30 18:47 51.68848 -5.26804 31544 ft 417 kts 156°
2026-04-30 18:47 51.66226 -5.24772 31735 ft 419 kts 156°
2026-04-30 18:47 51.63593 -5.22735 31928 ft 420 kts 156°
2026-04-30 18:48 51.60958 -5.20697 32175 ft 421 kts 156°
2026-04-30 18:48 51.58314 -5.18657 32415 ft 421 kts 156°
2026-04-30 18:48 51.55714 -5.16651 32643 ft 421 kts 156°
2026-04-30 18:48 51.53070 -5.14615 32877 ft 421 kts 156°
2026-04-30 18:49 51.50466 -5.12452 33090 ft 423 kts 147°
2026-04-30 18:49 51.48206 -5.09423 33361 ft 424 kts 141°
2026-04-30 18:49 51.45976 -5.06319 33519 ft 426 kts 141°
2026-04-30 18:49 51.43740 -5.03199 33718 ft 426 kts 141°
2026-04-30 18:50 51.41517 -5.00075 33949 ft 426 kts 141°
2026-04-30 18:50 51.39294 -4.96943 34143 ft 426 kts 141°
2026-04-30 18:50 51.37072 -4.93812 34321 ft 426 kts 141°
2026-04-30 18:50 51.34875 -4.90721 34489 ft 426 kts 141°
2026-04-30 18:51 51.32619 -4.87550 34654 ft 426 kts 141°
2026-04-30 18:51 51.30421 -4.84464 34815 ft 426 kts 141°
2026-04-30 18:51 51.28191 -4.81339 34975 ft 427 kts 141°
2026-04-30 18:52 51.23726 -4.75091 35065 ft 427 kts 141°
2026-04-30 18:52 51.19266 -4.68868 35063 ft 426 kts 141°
2026-04-30 18:53 51.14799 -4.62651 35057 ft 426 kts 141°
2026-04-30 18:53 51.10360 -4.56491 35057 ft 426 kts 141°
2026-04-30 18:54 51.05887 -4.50298 35057 ft 426 kts 141°
2026-04-30 18:54 51.01089 -4.44876 35065 ft 424 kts 149°
2026-04-30 18:55 50.96104 -4.39873 35066 ft 424 kts 149°
2026-04-30 18:55 50.88662 -4.32457 35066 ft 423 kts 149°
2026-04-30 18:56 50.81197 -4.25048 35068 ft 422 kts 150°
2026-04-30 18:57 50.73741 -4.17677 35075 ft 421 kts 150°
2026-04-30 18:57 50.68781 -4.12788 35077 ft 420 kts 150°
2026-04-30 18:58 50.61361 -4.05499 35080 ft 421 kts 150°
2026-04-30 18:59 50.53899 -3.98196 35082 ft 422 kts 150°
2026-04-30 19:00 50.43949 -3.88500 35088 ft 422 kts 150°
2026-04-30 19:01 50.33941 -3.78796 35087 ft 424 kts 150°
2026-04-30 19:02 50.26409 -3.71526 35084 ft 424 kts 150°
2026-04-30 19:03 50.16360 -3.61868 35092 ft 426 kts 150°
2026-04-30 19:04 50.06251 -3.52201 35077 ft 427 kts 150°
2026-04-30 19:05 49.96150 -3.42589 35073 ft 427 kts 150°
2026-04-30 19:06 49.86001 -3.32978 35077 ft 428 kts 150°
2026-04-30 19:06 49.78262 -3.26151 35059 ft 424 kts 164°
2026-04-30 19:07 49.69640 -3.23366 35075 ft 425 kts 169°
2026-04-30 19:08 49.58018 -3.19946 35075 ft 425 kts 170°
2026-04-30 19:09 49.49326 -3.17423 35071 ft 425 kts 170°
2026-04-30 19:09 49.43510 -3.15739 35073 ft 425 kts 170°
2026-04-30 19:10 49.31875 -3.12384 35073 ft 425 kts 170°
2026-04-30 19:11 49.23151 -3.09878 35074 ft 425 kts 170°
2026-04-30 19:12 49.17368 -3.08223 35075 ft 426 kts 170°
2026-04-30 19:12 49.11547 -3.06560 35076 ft 426 kts 170°
2026-04-30 19:13 48.99893 -3.03243 35075 ft 426 kts 170°
2026-04-30 19:14 48.94095 -3.01599 35073 ft 427 kts 170°
2026-04-30 19:14 48.91203 -3.00780 35077 ft 414 kts 170°
2026-04-30 19:14 48.88427 -2.99995 35030 ft 400 kts 170°
2026-04-30 19:14 48.85709 -2.99227 34635 ft 396 kts 170°
2026-04-30 19:15 48.83001 -2.98464 34101 ft 395 kts 170°
2026-04-30 19:15 48.77617 -2.96946 33052 ft 391 kts 169°
2026-04-30 19:15 48.74952 -2.96197 32598 ft 387 kts 169°
2026-04-30 19:16 48.72314 -2.95455 32154 ft 384 kts 169°
2026-04-30 19:16 48.69766 -2.94457 31613 ft 384 kts 161°
2026-04-30 19:16 48.64700 -2.92076 30756 ft 378 kts 163°
2026-04-30 19:17 48.62194 -2.90948 30349 ft 375 kts 164°
2026-04-30 19:17 48.57227 -2.88735 29428 ft 369 kts 164°
2026-04-30 19:17 48.54776 -2.87648 29024 ft 365 kts 164°
2026-04-30 19:18 48.51568 -2.86227 28496 ft 360 kts 164°
2026-04-30 19:18 48.47570 -2.84460 27849 ft 355 kts 164°
2026-04-30 19:18 48.45243 -2.83432 27478 ft 351 kts 164°
2026-04-30 19:19 48.42907 -2.82402 27106 ft 348 kts 164°
2026-04-30 19:19 48.40591 -2.81381 26742 ft 346 kts 164°
2026-04-30 19:19 48.36011 -2.79366 26027 ft 340 kts 164°
2026-04-30 19:20 48.33750 -2.78372 25674 ft 338 kts 164°
2026-04-30 19:20 48.31503 -2.77385 25322 ft 335 kts 164°
2026-04-30 19:20 48.26980 -2.75402 24624 ft 343 kts 164°
2026-04-30 19:21 48.24713 -2.74409 24279 ft 345 kts 164°
2026-04-30 19:21 48.20120 -2.72402 23571 ft 343 kts 164°
2026-04-30 19:22 48.15563 -2.70412 22804 ft 338 kts 164°
2026-04-30 19:22 48.09636 -2.67831 21905 ft 329 kts 164°
2026-04-30 19:23 48.02443 -2.64707 20814 ft 319 kts 164°
2026-04-30 19:24 47.98222 -2.62878 20178 ft 313 kts 164°
2026-04-30 19:24 47.96141 -2.61977 19867 ft 310 kts 164°
2026-04-30 19:24 47.92713 -2.60495 19337 ft 307 kts 164°
2026-04-30 19:25 47.85766 -2.57498 18277 ft 315 kts 164°
2026-04-30 19:26 47.81581 -2.55697 17593 ft 310 kts 164°
2026-04-30 19:26 47.78166 -2.54229 17070 ft 305 kts 164°
2026-04-30 19:26 47.76139 -2.53358 16761 ft 301 kts 164°
2026-04-30 19:27 47.72155 -2.51649 16152 ft 295 kts 164°
2026-04-30 19:27 47.68287 -2.49797 15477 ft 292 kts 151°
2026-04-30 19:28 47.66583 -2.48196 15192 ft 288 kts 148°
2026-04-30 19:28 47.63208 -2.44979 14631 ft 293 kts 148°
2026-04-30 19:29 47.59780 -2.41693 14032 ft 295 kts 148°
2026-04-30 19:29 47.58064 -2.40046 13708 ft 293 kts 148°
2026-04-30 19:30 47.53000 -2.35195 12770 ft 285 kts 147°
2026-04-30 19:30 47.49708 -2.32047 12207 ft 279 kts 147°
2026-04-30 19:31 47.46507 -2.28990 11636 ft 273 kts 147°
2026-04-30 19:31 47.44921 -2.27478 11358 ft 270 kts 147°
2026-04-30 19:31 47.41776 -2.24481 10806 ft 271 kts 147°
2026-04-30 19:32 47.40174 -2.22956 10515 ft 276 kts 147°
2026-04-30 19:32 47.38565 -2.21426 10311 ft 273 kts 147°
2026-04-30 19:32 47.36980 -2.19920 10159 ft 269 kts 147°
2026-04-30 19:32 47.35404 -2.18424 9864 ft 269 kts 147°
2026-04-30 19:33 47.33836 -2.16936 9551 ft 267 kts 147°
2026-04-30 19:33 47.32303 -2.15481 9260 ft 264 kts 147°
2026-04-30 19:33 47.30766 -2.14025 8979 ft 261 kts 147°
2026-04-30 19:33 47.29245 -2.12585 8697 ft 258 kts 147°
2026-04-30 19:34 47.27740 -2.11161 8424 ft 256 kts 147°
2026-04-30 19:34 47.26249 -2.09752 8151 ft 253 kts 148°
2026-04-30 19:34 47.23310 -2.06974 7621 ft 250 kts 148°
2026-04-30 19:35 47.21827 -2.05574 7353 ft 257 kts 148°
2026-04-30 19:35 47.20312 -2.04145 7071 ft 260 kts 148°
2026-04-30 19:35 47.18784 -2.02704 6801 ft 262 kts 148°
2026-04-30 19:35 47.17271 -2.01280 6518 ft 261 kts 148°
2026-04-30 19:36 47.15859 -1.99951 6248 ft 260 kts 148°
2026-04-30 19:36 47.14340 -1.98521 5953 ft 259 kts 148°
2026-04-30 19:36 47.11324 -1.95690 5346 ft 256 kts 148°
2026-04-30 19:37 47.09823 -1.94279 5023 ft 256 kts 148°
2026-04-30 19:37 47.08323 -1.92872 4718 ft 255 kts 148°
2026-04-30 19:37 47.06829 -1.91471 4424 ft 254 kts 148°
2026-04-30 19:37 47.05344 -1.90080 4172 ft 251 kts 148°
2026-04-30 19:38 47.03900 -1.88729 4031 ft 243 kts 148°
2026-04-30 19:38 47.02502 -1.87420 3920 ft 235 kts 149°
2026-04-30 19:38 47.01166 -1.86171 3804 ft 227 kts 149°
2026-04-30 19:38 46.99865 -1.84955 3702 ft 216 kts 149°
2026-04-30 19:39 46.98630 -1.83801 3591 ft 206 kts 149°
2026-04-30 19:39 46.97444 -1.82693 3450 ft 199 kts 149°
2026-04-30 19:39 46.96299 -1.81625 3301 ft 191 kts 149°
2026-04-30 19:39 46.95343 -1.80332 3131 ft 188 kts 121°
2026-04-30 19:40 46.95058 -1.78493 2975 ft 190 kts 85°
2026-04-30 19:40 46.95566 -1.76747 2962 ft 187 kts 49°
2026-04-30 19:40 46.96563 -1.75527 3049 ft 188 kts 35°
2026-04-30 19:40 46.97659 -1.74552 3036 ft 186 kts 30°
2026-04-30 19:41 46.98797 -1.73638 3009 ft 187 kts 29°
2026-04-30 19:41 46.99948 -1.72751 2994 ft 187 kts 28°
2026-04-30 19:41 47.01105 -1.71870 2887 ft 188 kts 28°
2026-04-30 19:41 47.02258 -1.70994 2667 ft 186 kts 28°
2026-04-30 19:42 47.03402 -1.70125 2440 ft 182 kts 28°
2026-04-30 19:42 47.04504 -1.69291 2216 ft 176 kts 28°
2026-04-30 19:42 47.05586 -1.68469 1988 ft 174 kts 28°
2026-04-30 19:42 47.06641 -1.67669 1756 ft 164 kts 28°
2026-04-30 19:43 47.07633 -1.66915 1578 ft 158 kts 28°
2026-04-30 19:43 47.08586 -1.66190 1352 ft 155 kts 27°
2026-04-30 19:43 47.09540 -1.65466 1122 ft 154 kts 28°
2026-04-30 19:44 47.11431 -1.64025 719 ft 152 kts 26°
2026-04-30 19:44 47.12374 -1.63310 514 ft 151 kts 26°
2026-04-30 19:44 47.13312 -1.62595 307 ft 151 kts 26°
2026-04-30 19:44 47.14232 -1.61890 103 ft 146 kts 26°
2026-04-30 19:45 47.15004 -1.61311 98 ft 92 kts 27°
2026-04-30 19:45 47.15429 -1.60988 98 ft 64 kts 27°
2026-04-30 19:45 47.15662 -1.60730 100 ft 25 kts 97°
2026-04-30 19:45 47.15652 -1.60686 102 ft 1 kts 115°
2026-04-30 19:46 47.15651 -1.60682 102 ft 1 kts 117°
2026-04-30 19:46 47.15644 -1.60666 102 ft 3 kts 122°
2026-04-30 19:46 47.15630 -1.60623 102 ft 6 kts 101°
2026-04-30 19:46 47.15654 -1.60551 101 ft 11 kts 32°
2026-04-30 19:47 47.15707 -1.60503 102 ft 9 kts 39°
2026-04-30 19:47 47.15721 -1.60443 102 ft 11 kts 102°